Velovelo
Português Nederlands 日本語 中文
Español English čeština slovenčina
русский italiano polski norsk
français Deutsch svenska عربي
 
 Página anterior
 Enviar a un amigo
 Para imprimir
 ---> La Machinoise 2008 : Résultats du 130 km

ClasNomPrénom.Cat...Temps..EcartMoy
1 LEYNAUD BENOIT A 3:23:44r 38,28534031
2 LECOLE REMI B 3:24:45r 1:01 38,0952381
3 PREZIOSI DEWITRI C 3:24:45r mt 38,0952381
4 SIMON YVES D 3:25:10r 1:26 38,01787165
5 THIMON GILBERT C 3:25:10r mt 38,01787165
6 RIGAULT CHRISTOPHE B 3:25:10r mt 38,01787165
7 DURAND MICHEL D 3:25:10r mt 38,01787165
8 DESCHAMPS RAPHAEL C 3:25:10r mt 38,01787165
9 PESCHETEAU REMI C 3:25:10r mt 38,01787165
10 ORENGO GUILLAUME A 3:25:10r mt 38,01787165
11 FAVROLT BENOIT A 3:25:10r mt 38,01787165
12 LAVERGNE FABIEN D 3:25:10r mt 38,01787165
13 BERGER CLAUDE C 3:25:10r mt 38,01787165
14 LESPAGNOL LAURENT B 3:25:10r mt 38,01787165
15 VITTORINI JULIEN A 3:25:10r mt 38,01787165
16 DECLOIS JEAN-CLAUDE E 3:25:10r mt 38,01787165
17 BOIS ALEXANDRE A 3:25:10r mt 38,01787165
18 TRECHOT CHRISTOPHE B 3:25:10r mt 38,01787165
19 FARRUGIO JEAN-PIERRE D 3:25:10r mt 38,01787165
20 GOSSEAUME PASCAL C 3:25:10r mt 38,01787165
20 GUENOLE DOMINIQUE D 3:25:10r mt 38,01787165
22 NUGUES PASCAL C 3:25:10r mt 38,01787165
23 FASSIER ARNAUD B 3:25:10r mt 38,01787165
24 MATHON HENRI D 3:25:10r mt 38,01787165
25 VOUILLON BERNARD C 3:25:10r mt 38,01787165
26 DULARY DENIS C 3:25:10r mt 38,01787165
27 ROUSSON JEAN D 3:25:10r mt 38,01787165
28 DUCREUX ROBERT E 3:25:10r mt 38,01787165
29 BONNEAU RICHARD D 3:25:10r mt 38,01787165
30 CHALOIN GILLES D 3:25:10r mt 38,01787165
31 MARIE JEAN-MICHEL C 3:25:10r mt 38,01787165
32 FALLET DAVID B 3:25:10r mt 38,01787165
33 LEGER JEAN-LUC D 3:25:10r mt 38,01787165
34 VIRELY WILLIAM A 3:25:10r mt 38,01787165
35 WYDUBA PASCAL D 3:25:10r mt 38,01787165
36 MITENNE DOMINIQUE D 3:25:10r mt 38,01787165
37 JOIRON ERIC D 3:25:10r mt 38,01787165
38 MATONNAT PASCAL B 3:25:10r mt 38,01787165
39 DE BATTISTA HERVE C 3:25:10r mt 38,01787165
40 REPKA FREDERIC C 3:25:10r mt 38,01787165
41 DEMUEZ THIERRY B 3:25:10r mt 38,01787165
42 BELLIO JEAN-FRANCOIS B 3:25:10r mt 38,01787165
43 BONDEAU LOIC A 3:25:10r mt 34,79553903
44 BABAD SYLVAIN A 3:44:10r 20:26 34,72840606
45 AROLES DOMINIQUE D 3:44:36r 20:52 34,35871081
46 BUET THIERRY C 3:47:1r 23:17 34,31085044
47 CARTIER BRICE D 3:47:20r 23:36 34,15061296
48 FOURNERET KEVIN A 3:48:24r 24:40 33,50035791
49 GIRARD CHRISTIAN D 3:52:50r 29:06 33,50035791
50 MARINOZZI FERDINANDO B 3:52:50r mt 33,50035791
51 DEROSSI ARMANDO E 3:52:50r mt 33,50035791
52 SEGARD MATHIEU A 3:52:50r mt 33,50035791
53 AMANT JEAN-CLAUDE A 3:52:50r mt 33,45246605
54 MITENNE DOMINIQUE D 3:53:10r 29:26 33,45246605
55 BAQUE CLAUDE D 3:53:10r mt 33,4118655
56 THOREL CHRISTOPHE C 3:53:27r 29:43 32,8975116
57 SANTERRE CYRILLE B 3:57:6r 33:22 32,28254122
58 PIERRE ERIC C 4:01:37r 37:53 31,66441137
59 BILON CLAUDE C 4:06:20r 42:36 30,98311817
60 BEAUDOIN MICHEL D 4:11:45r 48:01 30,98311817
61 ANGELINIADIS CATHERINE W2 4:11:45r mt
62 DESSEREY JOCELYNE W3 4:52:0r 28:16 26,71232877

Haut 









Haut  
 Espacio privado   Derechos de autor-Copyright : haga clic ici para leer !